This demonstration page uses our WeatherBlox Daily Observations layout. Learn more.

Left ArrowRight Arrow

44.8408, -93.29828

Hourly Observations for July 8, 2017

Temp ( °F °C ) Dew Point ( °F °C ) Humidity (%) Winds ( mph kmh ) Pressure ( in mb ) Visibility ( mi km ) Precip ( " mm )
12:53 am 00:53 Clear 66 18.9 53 11.7 63 63 N 3 6 30.03 1017 10 16 0.00 0.00
1:53 am 01:53 Clear 66 18.9 53 11.7 63 63 Calm 30.04 1017 10 16 0.00 0.00
2:53 am 02:53 Clear 65 18.3 54 12.2 68 68 SSE 3 6 30.03 1017 10 16 0.00 0.00
3:53 am 03:53 Mostly Clear 64 17.8 56 13.3 75 75 Calm 30.04 1017 10 16 0.00 0.00
4:53 am 04:53 Partly Cloudy 63 17.2 55 12.8 76 76 Calm 30.04 1017 10 16 0.00 0.00
5:53 am 05:53 Mostly Sunny 63 17.2 56 13.3 78 78 Calm 30.06 1018 10 16 0.00 0.00
6:53 am 06:53 Mostly Sunny 66 18.9 57 13.9 73 73 WSW 5 7 30.07 1018 10 16 0.00 0.00
7:53 am 07:53 Mostly Cloudy 67 19.4 56 13.3 68 68 W 5 7 30.08 1019 10 16 0.00 0.00
8:53 am 08:53 Mostly Sunny 71 21.7 55 12.8 57 57 W 6 9 30.08 1019 10 16 0.00 0.00
9:53 am 09:53 Mostly Cloudy 73 22.8 56 13.3 55 55 SSW 7 11 30.08 1019 10 16 0.00 0.00
10:53 am 10:53 Partly Cloudy 76 24.4 55 12.8 48 48 W 5 7 30.07 1018 10 16 0.00 0.00
11:53 am 11:53 Mostly Cloudy 77 25 55 12.8 47 47 WSW 8 13 30.06 1018 10 16 0.00 0.00
12:53 pm 12:53 Mostly Cloudy 78 25.6 51 10.6 39 39 WNW 10 17 30.05 1018 10 16 0.00 0.00
1:53 pm 13:53 Partly Cloudy 81 27.2 53 11.7 38 38 W 9 15 30.03 1017 10 16 0.00 0.00
2:53 pm 14:53 Mostly Cloudy 83 28.3 53 11.7 36 36 W 13 20 30.01 1016 10 16 0.00 0.00
3:53 pm 15:53 Mostly Cloudy 84 28.9 53 11.7 34 34 WNW 12 19 30.00 1016 10 16 0.00 0.00
4:53 pm 16:53 Mostly Cloudy 85 29.4 52 11.1 32 32 WNW 14 22 29.99 1016 10 16 0.00 0.00
5:53 pm 17:53 Mostly Cloudy 84 28.9 53 11.7 34 34 VRB 7 11 29.99 1016 10 16 0.00 0.00
6:53 pm 18:53 Mostly Cloudy 80 26.7 51 10.6 37 37 WNW 9 15 29.98 1015 10 16 0.00 0.00
7:53 pm 19:53 Partly Cloudy 80 26.7 52 11.1 38 38 WNW 9 15 29.97 1015 10 16 0.00 0.00
8:53 pm 20:53 Sunny 79 26.1 52 11.1 39 39 WSW 5 7 29.98 1015 10 16 0.00 0.00
9:53 pm 21:53 Clear 77 25 53 11.7 43 43 WSW 6 9 29.99 1016 10 16 0.00 0.00
10:53 pm 22:53 Clear 75 23.9 55 12.8 50 50 WSW 6 9 29.99 1016 10 16 0.00 0.00
11:53 pm 23:53 Clear 74 23.3 55 12.8 52 52 SW 6 9 29.98 1015 10 16 0.00 0.00

Powered by AerisWeather